Location: Red Deer
(52.2681°N, 113.8112°W)
Time: 19:15:11
(UTC-07:00)

N. Korean satellite - Pass Details

Date: 27 November 2022
Orbit: 407 x 442 km, 97.3° (Epoch: 05 February)

Event Time Altitude Azimuth Distance (km) Brightness Sun altitude
Rises 17:42:49 0° 196° (SSW) 2,426 10.7 -10.8°
Reaches altitude 10° 17:45:06 10° 212° (SSW) 1,575 10.0 -11.1°
Maximum altitude 17:47:51 23° 267° (W) 1,017 9.2 -11.5°
Drops below altitude 10° 17:50:41 10° 321° (NW) 1,616 9.5 -11.9°
Sets 17:53:04 0° 336° (NNW) 2,508 10.3 -12.3°
